SURFSAT (43614 NORAD) Tracking and Keplerian Element Data

This shows tracking and keplerian element data for the satellite.

Feedback or suggestion? Click here.




ElementValue
Catalog43614
NameSURFSAT
Epoch Orbit910
Epoch Day317.85818898
Epoch Year2018
RAAN274.0207
Inclination93.0312
Eccentricity0.0019855
Argument of Perigee63.6195
Mean Anonmoly296.7098
Mean Motion15.36492906
Decay Rate3.364E-05
L11 43614U 18070B 18317.85818898 .00003364 00000-0 94197-4 0 9999
L22 43614 93.0312 274.0207 0019855 63.6195 296.7098 15.36492906 9104

Live tracking and technical data element details for SURFSAT (NORAD 43614). SURFSAT can be tracked NOW for your location showing map with azimuth and elevation plus other details from your city location.

Track the satellite on the map from your city or location and see movement details for azimuth, elevation, latitude, longitude, range, height, and movement on the map or in text.







IsCatalogInMostPopularTable: catalog: 43614, numindb: 19
Update: records affected: 1



GetName: 43614 SURFSAT

Hit Count: updated at: Thu, 15 Nov 2018 04:58:34 GMT